Flag for Germany Weather past 2 weeks in Solingen, North Rhine-Westphalia, Germany

Now
45 °F

Clear.


Feels Like: 37 °F
Forecast: 38 / 47 °F
Wind: 16 mph from South

Location: Duesseldorf

Current Time: Feb 28, 2015 at 7:24:40 PM

Latest Report: Feb 28, 2015 at 6:50 PM


Visibility: 10 mi

Pressure: 29.92 "Hg

Humidity: 53%

Dew point: 28 °F

Location of SolingenLocation

Historic Weather in Solingen — Graph

°F

Solingen temperature yesterday

Maximum temperature yesterday: 46 °F (at 4:20 PM)
Minimum temperature yesterday: 34 °F (at 11:50 PM)
Average temperature yesterday: 42 °F

Past Weeks' High & Low Weather Summary

 TemperatureHumidityPressure
High54 °F (Feb 14, 2:20 PM)100% (Feb 15, 4:20 AM)30.77 "Hg (Feb 15, 4:20 AM)
Low27 °F (Feb 15, 7:50 AM)43% (Feb 28, 3:50 PM)29.36 "Hg (Feb 21, 3:50 AM)
Average40 °F82%29.97 "Hg
* Reported Feb 13 6:20 PM — Feb 28 6:20 PM, Solingen, Weather by CustomWeather, © 2015

Note: Actual official high and low records may vary slightly from our data, if they occured in-between our weather recording intervals... More about our weather records

Advertising

Solingen weather history for previous 24 hours

 ConditionsComfort  
Time TempWeatherWind HumidityBarometerVisibility
6:20 PM
Sat, Feb 28
45 °FClear.16 mph49%29.92 "Hg10 mi
5:50 PM45 °FSunny.16 mph53%29.92 "Hg10 mi
5:20 PM46 °FSunny.16 mph46%29.95 "Hg10 mi
4:50 PM46 °FSunny.16 mph46%29.95 "Hg10 mi
4:20 PM48 °FScattered clouds.14 mph43%29.98 "HgN/A
3:50 PM48 °FScattered clouds.16 mph43%29.98 "HgN/A
3:20 PM48 °FScattered clouds.14 mph50%30.01 "HgN/A
2:50 PM48 °FScattered clouds.14 mph46%30.01 "HgN/A
2:20 PM46 °FBroken clouds.13 mph50%30.04 "HgN/A
1:50 PM46 °FBroken clouds.14 mph53%30.04 "HgN/A
1:20 PM46 °FPartly sunny.14 mph50%30.04 "HgN/A
12:50 PM45 °FPartly sunny.14 mph57%30.07 "HgN/A
12:20 PM45 °FSunny.14 mph57%30.09 "Hg10 mi
11:50 AM43 °FSunny.14 mph61%30.09 "Hg10 mi
11:20 AM41 °FSunny.13 mph66%30.09 "Hg10 mi
10:50 AM41 °FSunny.12 mph66%30.09 "Hg10 mi
10:20 AM39 °FSunny.12 mph75%30.12 "Hg10 mi
9:50 AM37 °FSunny.9 mph81%30.12 "Hg10 mi
9:20 AM36 °FSunny.12 mph87%30.12 "Hg10 mi
8:50 AM34 °FSunny.13 mph93%30.12 "Hg10 mi
8:20 AM32 °FSunny.10 mph100%30.12 "Hg10 mi
7:50 AM32 °FSunny.10 mph93%30.12 "Hg10 mi
7:20 AM30 °FClear.10 mph100%30.12 "Hg10 mi
6:50 AM30 °FClear.10 mph100%30.12 "Hg10 mi
6:20 AM30 °FClear.10 mph100%30.12 "Hg10 mi
5:50 AM30 °FClear.9 mph100%30.12 "Hg10 mi
5:20 AM30 °FClear.6 mph100%30.12 "Hg10 mi
4:50 AM28 °FClear.3 mph100%30.15 "Hg10 mi
4:20 AM28 °FClear.3 mph100%30.15 "Hg10 mi
3:50 AM30 °FClear.2 mph93%30.15 "Hg10 mi
3:20 AM30 °FClear.3 mph100%30.15 "Hg10 mi
2:50 AM30 °FClear.7 mph100%30.15 "Hg10 mi
2:20 AM30 °FClear.6 mph93%30.15 "Hg10 mi
1:50 AM32 °FClear.6 mph93%30.15 "Hg10 mi
1:20 AM30 °FClear.5 mph93%30.15 "Hg10 mi
12:50 AM32 °FClear.2 mph87%30.15 "Hg10 mi
12:20 AM32 °FClear.6 mph87%30.15 "Hg10 mi
11:50 PM
Fri, Feb 27
34 °FClear.3 mph81%30.15 "Hg10 mi
11:20 PM36 °FClear.5 mph81%30.15 "Hg10 mi
10:50 PM36 °FClear.6 mph81%30.15 "Hg10 mi
10:20 PM37 °FClear.7 mph75%30.15 "Hg10 mi
9:50 PM39 °FClear.8 mph70%30.15 "Hg10 mi
9:20 PM39 °FClear.7 mph70%30.15 "Hg10 mi
8:50 PM39 °FPassing clouds.7 mph70%30.12 "HgN/A
8:20 PM39 °FPassing clouds.7 mph70%30.12 "HgN/A
7:50 PM39 °FPassing clouds.7 mph70%30.12 "HgN/A
7:20 PM39 °FPassing clouds.5 mph70%30.09 "HgN/A
Weather by CustomWeather, © 2015

See weather overviewHow to use our weather pages